TimeCDT,TemperatureF,Dew PointF,Humidity,Sea Level PressureIn,VisibilityMPH,Wind Direction,Wind SpeedMPH,Gust SpeedMPH,PrecipitationIn,Events,Conditions,WindDirDegrees,DateUTC
12:53 AM,78.1,72.0,81,29.96,10.0,SSW,12.7,-,N/A,,Clear,200,2013-07-22 05:53:00
1:53 AM,78.1,72.0,81,29.95,10.0,SSW,13.8,20.7,N/A,,Clear,210,2013-07-22 06:53:00
2:53 AM,78.1,73.0,84,29.95,10.0,SSW,12.7,-,N/A,,Clear,210,2013-07-22 07:53:00
3:53 AM,78.1,72.0,81,29.95,10.0,SSW,12.7,-,N/A,,Clear,210,2013-07-22 08:53:00
4:34 AM,78.8,73.4,83,29.94,10.0,SW,16.1,-,N/A,,Mostly Cloudy,220,2013-07-22 09:34:00
4:53 AM,78.1,73.0,84,29.95,10.0,SW,11.5,-,N/A,,Mostly Cloudy,220,2013-07-22 09:53:00
5:06 AM,78.8,73.4,83,29.94,10.0,SW,13.8,21.9,N/A,,Mostly Cloudy,230,2013-07-22 10:06:00
5:53 AM,78.1,73.0,84,29.96,10.0,WSW,13.8,-,N/A,,Mostly Cloudy,240,2013-07-22 10:53:00
6:07 AM,77.0,73.4,89,29.95,10.0,SW,12.7,21.9,N/A,,Mostly Cloudy,230,2013-07-22 11:07:00
6:15 AM,77.0,73.4,89,29.95,10.0,SW,11.5,-,N/A,,Mostly Cloudy,230,2013-07-22 11:15:00
6:53 AM,77.0,73.0,88,29.97,10.0,SW,11.5,-,N/A,,Overcast,230,2013-07-22 11:53:00
7:53 AM,78.1,73.0,84,29.98,10.0,SW,13.8,-,N/A,,Overcast,230,2013-07-22 12:53:00
8:53 AM,80.1,73.0,79,29.99,10.0,WSW,12.7,-,N/A,,Overcast,240,2013-07-22 13:53:00
9:22 AM,80.6,73.4,79,29.98,10.0,WSW,11.5,-,N/A,,Overcast,250,2013-07-22 14:22:00
9:53 AM,82.0,73.9,76,30.00,10.0,WSW,11.5,-,N/A,,Overcast,250,2013-07-22 14:53:00
10:53 AM,84.9,73.9,69,30.00,10.0,SW,11.5,-,N/A,,Mostly Cloudy,230,2013-07-22 15:53:00
11:53 AM,87.1,75.0,67,29.99,10.0,WSW,12.7,-,N/A,,Mostly Cloudy,240,2013-07-22 16:53:00
12:50 PM,87.8,73.4,62,29.99,10.0,WSW,10.4,-,N/A,,Overcast,250,2013-07-22 17:50:00
12:53 PM,86.0,73.9,67,30.00,10.0,WSW,8.1,-,N/A,,Overcast,250,2013-07-22 17:53:00
1:53 PM,89.1,73.9,61,29.97,10.0,WSW,8.1,-,0.00,Rain,Light Rain,250,2013-07-22 18:53:00
2:53 PM,91.0,73.9,57,29.95,10.0,WSW,9.2,16.1,0.00,,Clear,240,2013-07-22 19:53:00
3:53 PM,91.9,73.9,55,29.93,10.0,West,10.4,16.1,N/A,,Partly Cloudy,260,2013-07-22 20:53:00
4:53 PM,91.9,73.0,54,29.91,10.0,WSW,12.7,19.6,N/A,,Clear,250,2013-07-22 21:53:00
5:53 PM,93.0,73.0,52,29.93,10.0,WSW,8.1,-,N/A,,Scattered Clouds,250,2013-07-22 22:53:00
6:53 PM,91.0,73.0,55,29.92,10.0,WSW,8.1,-,N/A,,Clear,250,2013-07-22 23:53:00
7:53 PM,87.1,73.0,63,29.92,10.0,Calm,Calm,-,N/A,,Clear,0,2013-07-23 00:53:00
8:53 PM,80.1,73.9,81,29.93,10.0,Calm,Calm,-,N/A,,Clear,0,2013-07-23 01:53:00
9:53 PM,80.1,75.0,85,29.93,10.0,SE,4.6,-,N/A,,Clear,140,2013-07-23 02:53:00
10:53 PM,80.1,73.9,81,29.93,10.0,South,9.2,-,N/A,,Clear,190,2013-07-23 03:53:00
11:53 PM,81.0,75.0,82,29.94,10.0,South,8.1,-,N/A,,Clear,190,2013-07-23 04:53:00